Location: Bothwell
(41.7170°N, 112.2589°W)
Time: 17:47:21
(UTC+00:00)

Vanguard 2 - Pass Details

Date: 18 May 2026
Orbit: 553 x 2894 km, 32.9° (Epoch: 9 June)

Event Time Altitude Azimuth Distance (km) Brightness Sun altitude
Rises 10:48:12 0° 260° (W) 6,545 - -12.8°
Exits shadow 10:50:22 - 259° (W) 6,085 11.6 -12.5°
Reaches altitude 10° 10:52:27 10° 258° (WSW) 5,644 11.4 -12.2°
Maximum altitude 11:09:43 62° 184° (S) 2,990 10.3 -9.7°
Drops below altitude 10° 11:23:48 10° 108° (ESE) 4,707 12.1 -7.6°
Sets 11:27:00 0° 105° (ESE) 5,445 12.5 -7.1°
